Regional Weather Roundup
Issued by NWS Little Rock, AR

Home | Current Version | Previous Version | Text Only | Print | Product List | Glossary On
Versions: 1 2 3 4 5 6 7 8 9 10 11 12 13 14 15 16 17 18 19 20 21 22 23 24 25 26 27 28 29 30 31 32 33 34 35 36 37 38 39 40 41 42 43 44 45 46 47 48 49 50
000
ASUS44 KLZK 230705
RWRLZK

WEATHER ROUNDUP FOR ARKANSAS
NATIONAL WEATHER SERVICE LITTLE ROCK AR
200 AM CDT SAT AUG 23 2014

NOTE: "FAIR" INDICATES FEW OR NO CLOUDS BELOW 12,000 FEET WITH NO
SIGNIFICANT WEATHER AND/OR OBSTRUCTIONS TO VISIBILITY.

ARZ001-003-010-029-230800-
NORTHWEST ARKANSAS

CITY           SKY/WX    TMP DP  RH WIND       PRES   REMARKS
FAYETTEVILLE   CLEAR     75  73  93 CALM      30.02S
FORT SMITH     CLEAR     79  75  87 CALM      29.97S
HARRISON       CLEAR     78  73  84 S6        30.02F
BENTONVILLE    CLEAR     75  72  88 S5        30.02F
ROGERS         CLEAR     79  71  76 S8        30.02F
SILOAM SPGS    CLEAR     75  66  73 S5        30.02S
HIGHFILL       CLEAR     75  71  87 S7        30.01S
$$

ARZ004-005-016-230800-
NORTH CENTRAL ARKANSAS

CITY           SKY/WX    TMP DP  RH WIND       PRES   REMARKS
BATESVILLE     CLEAR     82  75  78 SW7       29.97S HX  89
FLIPPIN        CLEAR     79  70  73 S5        29.99S
MTN HOME       CLEAR     78  73  84 SW3       29.99S
$$

ARZ040-041-230800-
WEST CENTRAL ARKANSAS

CITY           SKY/WX    TMP DP  RH WIND       PRES   REMARKS
MENA           CLEAR     82  73  74 CALM      30.03S HX  88
MOUNT IDA      CLEAR     74  72  93 CALM      29.99S
$$

ARZ009-017-025-026-028-230800-
NORTHEAST ARKANSAS

CITY           SKY/WX    TMP DP  RH WIND       PRES   REMARKS
CORNING        FAIR      77  75  94 SW5       29.97R
JONESBORO      CLEAR     80  74  81 SW5       29.96F HX  85
NEWPORT        CLEAR     79  76  90 S8        29.98S
WALNUT RIDGE   CLEAR     79  73  83 S7        29.96R
BLYTHEVILLE    CLEAR     78  75  90 SW5       29.97F
$$

ARZ022-023-033-042-044-230800-
CENTRAL ARKANSAS

CITY           SKY/WX    TMP DP  RH WIND       PRES   REMARKS
LITTLE ROCK    CLEAR     79  73  82 S5        29.99S
N LITTLE ROCK    N/A     82  74  78 SW8       29.99S HX  88
JACKSONVILLE   CLEAR     78  76  92 CALM      29.99S
SEARCY           N/A     78  77  97 CALM        N/A
HOT SPRINGS    CLEAR     78  73  84 W3        30.01S
RUSSELLVILLE   CLEAR     77  75  93 CALM      29.99S
CLINTON        FAIR      73  73 100 CALM      30.00S FOG
$$

ARZ036-230800-
EAST ARKANSAS

CITY           SKY/WX    TMP DP  RH WIND       PRES   REMARKS
WEST MEMPHIS   CLEAR     77  75  93 S5        29.97F
$$

ARZ050-053-066-070-073-230800-
SOUTHWEST ARKANSAS

CITY           SKY/WX    TMP DP  RH WIND       PRES   REMARKS
ARKADELPHIA    FAIR      75  75 100 CALM      30.00S FOG
CAMDEN         CLEAR     75  72  88 CALM      30.00S FOG
TEXARKANA      CLEAR     77  72  84 SW5       30.00R
EL DORADO      CLEAR     74  72  93 CALM      30.01R
DE QUEEN       CLEAR     74  73  97 CALM      29.98R FOG
$$

ARZ056-057-069-230800-
SOUTHEAST ARKANSAS

CITY           SKY/WX    TMP DP  RH WIND       PRES   REMARKS
PINE BLUFF     CLEAR     75  73  93 CALM      29.99F
STUTTGART      CLEAR     79  73  83 S7        29.99F
MONTICELLO     CLEAR     80  72  76 SW5       30.00S

$$




USA.gov is the U.S. government's official web portal to all federal, state and local government web resources and services.